Location: Lugrin
(46.4033°N, 6.6674°E)
Time: 05:43:16
(UTC+00:00)

Tsikada Rocket - Pass Details

Date: 22 January 2021
Orbit: 958 x 1009 km, 82.9° (Epoch: 06 March)

Event Time Altitude Azimuth Distance (km) Brightness Sun altitude
Rises 17:51:01 0° 228° (SW) 3,701 8.2 -15.0°
Reaches altitude 10° 17:54:08 10° 243° (WSW) 2,748 7.6 -15.5°
Maximum altitude 17:59:00 23° 294° (WNW) 1,958 6.3 -16.3°
Drops below altitude 10° 18:03:51 10° 345° (NNW) 2,732 6.4 -17.2°
Sets 18:06:58 0° 360° (N) 3,676 6.9 -17.7°
